TRSI-3

导读

TRSI-3是美国于2022年5月2日北京时间8点整发射的一颗卫星,作为美国近年航天发射布局中的小型航天器,它承载着技术验证相关任务目标,是美国推进近地轨道空间技术应用的实践项目之一。该卫星进入预定轨道后,开展既定空间测试工作,为美国后续同类航天任务积累了在轨运行数据,助力其商业航天和空间技术迭代发展。

基本信息
目录编号:
52418
目录名称:
TRSI-3
国际标识:
2022-047AA
轨道中心:
EARTH
卫星名称:
TRSI-3
卫星全名:
--
卫星状态:
已陨落 最后检测时间 2024-06-07
发射日期:
2022-05-02 UTC
国别 :
美国 (US)
星等 :
--
轨道信息
数据来源 国际轨道数据
星历时间: 2024-06-07T15:22:39+0800
轨道信息已过期767天
半长轴: 6575.058km
偏心率: 0.0016439
轨道倾角: 97.367°
近地点辐角 270.786°
升交点赤经 253.712°
平近点角 89.155°
近地点: 186.114km
远地点: 207.732km
周期: 88.432分钟
每日圈数: 16.283712
详细信息
使用方式:
暂无